Year,Month,Day,Hour,Minute,Value (Times are PST for temperature in C)
2006,08,26,00,00,16.60
2006,08,26,00,01,16.50
2006,08,26,00,02,16.40
2006,08,26,00,03,16.40
2006,08,26,00,04,16.40
2006,08,26,00,05,16.40
2006,08,26,00,06,16.30
2006,08,26,00,07,16.30
2006,08,26,00,08,16.30
2006,08,26,00,09,16.30
2006,08,26,00,10,16.30
2006,08,26,00,11,16.30
2006,08,26,00,12,16.30
2006,08,26,00,13,16.30
2006,08,26,00,14,16.30
2006,08,26,00,15,16.20
2006,08,26,00,16,16.20
2006,08,26,00,17,16.10
2006,08,26,00,18,16.00
2006,08,26,00,19,15.90
2006,08,26,00,20,15.80
2006,08,26,00,21,15.70
2006,08,26,00,22,15.60
2006,08,26,00,23,15.50
2006,08,26,00,24,15.50
2006,08,26,00,25,15.40
2006,08,26,00,26,15.30
2006,08,26,00,27,15.30
2006,08,26,00,28,15.30
2006,08,26,00,29,15.20
2006,08,26,00,30,15.20
2006,08,26,00,31,15.10
2006,08,26,00,32,15.10
2006,08,26,00,33,15.10
2006,08,26,00,34,15.00
2006,08,26,00,35,14.90
2006,08,26,00,36,14.90
2006,08,26,00,37,14.90
2006,08,26,00,38,14.80
2006,08,26,00,39,14.80
2006,08,26,00,40,14.80
2006,08,26,00,41,14.80
2006,08,26,00,42,14.80
2006,08,26,00,43,14.80
2006,08,26,00,44,14.80
2006,08,26,00,45,14.80
2006,08,26,00,46,14.80
2006,08,26,00,47,14.90
2006,08,26,00,48,14.90
2006,08,26,00,49,14.90
2006,08,26,00,50,14.90
2006,08,26,00,51,14.90
2006,08,26,00,52,14.90
2006,08,26,00,53,14.90
2006,08,26,00,54,14.90
2006,08,26,00,55,14.80
2006,08,26,00,56,14.80
2006,08,26,00,57,14.80
2006,08,26,00,58,14.80
2006,08,26,00,59,14.80
2006,08,26,01,00,14.80
2006,08,26,01,01,14.80
2006,08,26,01,02,14.80
2006,08,26,01,03,14.80
2006,08,26,01,04,14.80
2006,08,26,01,05,14.80
2006,08,26,01,06,14.80
2006,08,26,01,07,14.80
2006,08,26,01,08,14.80
2006,08,26,01,09,14.80
2006,08,26,01,10,14.80
2006,08,26,01,11,14.80
2006,08,26,01,12,14.80
2006,08,26,01,13,14.80
2006,08,26,01,14,14.70
2006,08,26,01,15,14.70
2006,08,26,01,16,14.70
2006,08,26,01,17,14.70
2006,08,26,01,18,14.70
2006,08,26,01,19,14.70
2006,08,26,01,20,14.70
2006,08,26,01,21,14.80
2006,08,26,01,22,14.80
2006,08,26,01,23,14.80
2006,08,26,01,24,14.80
2006,08,26,01,25,14.80
2006,08,26,01,26,14.80
2006,08,26,01,27,14.80
2006,08,26,01,28,14.70
2006,08,26,01,29,14.70
2006,08,26,01,30,14.70
2006,08,26,01,31,14.70
2006,08,26,01,32,14.80
2006,08,26,01,33,14.80
2006,08,26,01,34,14.80
2006,08,26,01,35,14.80
2006,08,26,01,36,14.80
2006,08,26,01,37,14.80
2006,08,26,01,38,14.80
2006,08,26,01,39,14.80
2006,08,26,01,40,14.90
2006,08,26,01,41,14.90
2006,08,26,01,42,14.90
2006,08,26,01,43,14.90
2006,08,26,01,44,14.90
2006,08,26,01,45,14.90
2006,08,26,01,46,14.90
2006,08,26,01,47,14.90
2006,08,26,01,48,14.90
2006,08,26,01,49,14.90
2006,08,26,01,50,14.90
2006,08,26,01,51,14.90
2006,08,26,01,52,14.90
2006,08,26,01,53,14.90
2006,08,26,01,54,14.90
2006,08,26,01,55,14.90
2006,08,26,01,56,14.90
2006,08,26,01,57,14.90
2006,08,26,01,58,14.80
2006,08,26,01,59,14.80
2006,08,26,02,00,14.80
2006,08,26,02,01,14.80
2006,08,26,02,02,14.80
2006,08,26,02,03,14.70
2006,08,26,02,04,14.70
2006,08,26,02,05,14.70
2006,08,26,02,06,14.70
2006,08,26,02,07,14.60
2006,08,26,02,08,14.60
2006,08,26,02,09,14.60
2006,08,26,02,10,14.50
2006,08,26,02,11,14.50
2006,08,26,02,12,14.50
2006,08,26,02,13,14.50
2006,08,26,02,14,14.40
2006,08,26,02,15,14.40
2006,08,26,02,16,14.40
2006,08,26,02,17,14.40
2006,08,26,02,18,14.40
2006,08,26,02,19,14.40
2006,08,26,02,20,14.30
2006,08,26,02,21,14.30
2006,08,26,02,22,14.40
2006,08,26,02,23,14.40
2006,08,26,02,24,14.40
2006,08,26,02,25,14.50
2006,08,26,02,26,14.50
2006,08,26,02,27,14.50
2006,08,26,02,28,14.50
2006,08,26,02,29,14.50
2006,08,26,02,30,14.60
2006,08,26,02,31,14.50
2006,08,26,02,32,14.50
2006,08,26,02,33,14.50
2006,08,26,02,34,14.50
2006,08,26,02,35,14.50
2006,08,26,02,36,14.50
2006,08,26,02,37,14.50
2006,08,26,02,38,14.50
2006,08,26,02,39,14.40
2006,08,26,02,40,14.40
2006,08,26,02,41,14.40
2006,08,26,02,42,14.40
2006,08,26,02,43,14.40
2006,08,26,02,44,14.40
2006,08,26,02,45,14.30
2006,08,26,02,46,14.30
2006,08,26,02,47,14.20
2006,08,26,02,48,14.30
2006,08,26,02,49,14.30
2006,08,26,02,50,14.20
2006,08,26,02,51,14.20
2006,08,26,02,52,14.20
2006,08,26,02,53,14.20
2006,08,26,02,54,14.20
2006,08,26,02,55,14.20
2006,08,26,02,56,14.20
2006,08,26,02,57,14.20
2006,08,26,02,58,14.20
2006,08,26,02,59,14.20
2006,08,26,03,00,14.20
2006,08,26,03,01,14.20
2006,08,26,03,02,14.20
2006,08,26,03,03,14.20
2006,08,26,03,04,14.20
2006,08,26,03,05,14.20
2006,08,26,03,06,14.20
2006,08,26,03,07,14.20
2006,08,26,03,08,14.10
2006,08,26,03,09,14.10
2006,08,26,03,10,14.10
2006,08,26,03,11,14.00
2006,08,26,03,12,14.00
2006,08,26,03,13,14.00
2006,08,26,03,14,14.00
2006,08,26,03,15,14.00
2006,08,26,03,16,13.90
2006,08,26,03,17,13.90
2006,08,26,03,18,13.90
2006,08,26,03,19,13.90
2006,08,26,03,20,13.90
2006,08,26,03,21,13.80
2006,08,26,03,22,13.70
2006,08,26,03,23,13.70
2006,08,26,03,24,13.70
2006,08,26,03,25,13.70
2006,08,26,03,26,13.70
2006,08,26,03,27,13.70
2006,08,26,03,28,13.70
2006,08,26,03,29,13.70
2006,08,26,03,30,13.70
2006,08,26,03,31,13.70
2006,08,26,03,32,13.70
2006,08,26,03,33,13.70
2006,08,26,03,34,13.70
2006,08,26,03,35,13.70
2006,08,26,03,36,13.70
2006,08,26,03,37,13.70
2006,08,26,03,38,13.70
2006,08,26,03,39,13.60
2006,08,26,03,40,13.60
2006,08,26,03,41,13.60
2006,08,26,03,42,13.70
2006,08,26,03,43,13.70
2006,08,26,03,44,13.70
2006,08,26,03,45,13.70
2006,08,26,03,46,13.70
2006,08,26,03,47,13.70
2006,08,26,03,48,13.70
2006,08,26,03,49,13.70
2006,08,26,03,50,13.70
2006,08,26,03,51,13.70
2006,08,26,03,52,13.70
2006,08,26,03,53,13.70
2006,08,26,03,54,13.70
2006,08,26,03,55,13.70
2006,08,26,03,56,13.70
2006,08,26,03,57,13.70
2006,08,26,03,58,13.60
2006,08,26,03,59,13.60
2006,08,26,04,00,13.60
2006,08,26,04,01,13.60
2006,08,26,04,02,13.60
2006,08,26,04,03,13.60
2006,08,26,04,04,13.60
2006,08,26,04,05,13.50
2006,08,26,04,06,13.50
2006,08,26,04,07,13.40
2006,08,26,04,08,13.30
2006,08,26,04,09,13.30
2006,08,26,04,10,13.30
2006,08,26,04,11,13.30
2006,08,26,04,12,13.30
2006,08,26,04,13,13.30
2006,08,26,04,14,13.30
2006,08,26,04,15,13.30
2006,08,26,04,16,13.30
2006,08,26,04,17,13.30
2006,08,26,04,18,13.30
2006,08,26,04,19,13.20
2006,08,26,04,20,13.20
2006,08,26,04,21,13.20
2006,08,26,04,22,13.20
2006,08,26,04,23,13.20
2006,08,26,04,24,13.20
2006,08,26,04,25,13.20
2006,08,26,04,26,13.20
2006,08,26,04,27,13.20
2006,08,26,04,28,13.20
2006,08,26,04,29,13.20
2006,08,26,04,30,13.20
2006,08,26,04,31,13.30
2006,08,26,04,32,13.30
2006,08,26,04,33,13.30
2006,08,26,04,34,13.30
2006,08,26,04,35,13.30
2006,08,26,04,36,13.30
2006,08,26,04,37,13.30
2006,08,26,04,38,13.30
2006,08,26,04,39,13.30
2006,08,26,04,40,13.30
2006,08,26,04,41,13.30
2006,08,26,04,42,13.30
2006,08,26,04,43,13.30
2006,08,26,04,44,13.30
2006,08,26,04,45,13.30
2006,08,26,04,46,13.20
2006,08,26,04,47,13.30
2006,08,26,04,48,13.30
2006,08,26,04,49,13.30
2006,08,26,04,50,13.20
2006,08,26,04,51,13.20
2006,08,26,04,52,13.20
2006,08,26,04,53,13.20
2006,08,26,04,54,13.10
2006,08,26,04,55,13.10
2006,08,26,04,56,13.00
2006,08,26,04,57,13.00
2006,08,26,04,58,13.00
2006,08,26,04,59,13.00
2006,08,26,05,00,12.90
2006,08,26,05,01,12.90
2006,08,26,05,02,12.90
2006,08,26,05,03,12.90
2006,08,26,05,04,12.90
2006,08,26,05,05,13.00
2006,08,26,05,06,13.00
2006,08,26,05,07,12.90
2006,08,26,05,08,12.90
2006,08,26,05,09,13.00
2006,08,26,05,10,13.00
2006,08,26,05,11,13.00
2006,08,26,05,12,13.00
2006,08,26,05,13,13.00
2006,08,26,05,14,13.10
2006,08,26,05,15,13.10
2006,08,26,05,16,13.10
2006,08,26,05,17,13.10
2006,08,26,05,18,13.10
2006,08,26,05,19,13.10
2006,08,26,05,20,13.10
2006,08,26,05,21,13.10
2006,08,26,05,22,13.10
2006,08,26,05,23,13.10
2006,08,26,05,24,13.00
2006,08,26,05,25,13.00
2006,08,26,05,26,13.00
2006,08,26,05,27,13.00
2006,08,26,05,28,13.00
2006,08,26,05,29,13.00
2006,08,26,05,30,12.90
2006,08,26,05,31,12.90
2006,08,26,05,32,12.90
2006,08,26,05,33,12.90
2006,08,26,05,34,12.90
2006,08,26,05,35,12.90
2006,08,26,05,36,12.80
2006,08,26,05,37,12.80
2006,08,26,05,38,12.80
2006,08,26,05,39,12.80
2006,08,26,05,40,12.80
2006,08,26,05,41,12.80
2006,08,26,05,42,12.80
2006,08,26,05,43,12.80
2006,08,26,05,44,12.80
2006,08,26,05,45,12.80
2006,08,26,05,46,12.80
2006,08,26,05,47,12.80
2006,08,26,05,48,12.80
2006,08,26,05,49,12.80
2006,08,26,05,50,12.80
2006,08,26,05,51,12.80
2006,08,26,05,52,12.80
2006,08,26,05,53,12.70
2006,08,26,05,54,12.70
2006,08,26,05,55,12.70
2006,08,26,05,56,12.70
2006,08,26,05,57,12.70
2006,08,26,05,58,12.70
2006,08,26,05,59,12.70
2006,08,26,06,00,12.70
2006,08,26,06,01,12.70
2006,08,26,06,02,12.70
2006,08,26,06,03,12.70
2006,08,26,06,04,12.70
2006,08,26,06,05,12.70
2006,08,26,06,06,12.70
2006,08,26,06,07,12.70
2006,08,26,06,08,12.70
2006,08,26,06,09,12.70
2006,08,26,06,10,12.70
2006,08,26,06,11,12.70
2006,08,26,06,12,12.70
2006,08,26,06,13,12.70
2006,08,26,06,14,12.70
2006,08,26,06,15,12.70
2006,08,26,06,16,12.70
2006,08,26,06,17,12.70
2006,08,26,06,18,12.70
2006,08,26,06,19,12.70
2006,08,26,06,20,12.70
2006,08,26,06,21,12.70
2006,08,26,06,22,12.80
2006,08,26,06,23,12.80
2006,08,26,06,24,12.80
2006,08,26,06,25,12.80
2006,08,26,06,26,12.90
2006,08,26,06,27,12.90
2006,08,26,06,28,12.90
2006,08,26,06,29,13.00
2006,08,26,06,30,13.00
2006,08,26,06,31,13.00
2006,08,26,06,32,13.00
2006,08,26,06,33,13.00
2006,08,26,06,34,13.10
2006,08,26,06,35,13.10
2006,08,26,06,36,13.10
2006,08,26,06,37,13.20
2006,08,26,06,38,13.20
2006,08,26,06,39,13.20
2006,08,26,06,40,13.20
2006,08,26,06,41,13.20
2006,08,26,06,42,13.30
2006,08,26,06,43,13.30
2006,08,26,06,44,13.40
2006,08,26,06,45,13.50
2006,08,26,06,46,13.50
2006,08,26,06,47,13.60
2006,08,26,06,48,13.70
2006,08,26,06,49,13.70
2006,08,26,06,50,13.70
2006,08,26,06,51,13.70
2006,08,26,06,52,13.70
2006,08,26,06,53,13.70
2006,08,26,06,54,13.70
2006,08,26,06,55,13.70
2006,08,26,06,56,13.70
2006,08,26,06,57,13.70
2006,08,26,06,58,13.70
2006,08,26,06,59,13.70
2006,08,26,07,00,13.70
2006,08,26,07,01,13.80
2006,08,26,07,02,13.90
2006,08,26,07,03,13.90
2006,08,26,07,04,14.00
2006,08,26,07,05,14.00
2006,08,26,07,06,14.10
2006,08,26,07,07,14.10
2006,08,26,07,08,14.20
2006,08,26,07,09,14.20
2006,08,26,07,10,14.30
2006,08,26,07,11,14.40
2006,08,26,07,12,14.50
2006,08,26,07,13,14.50
2006,08,26,07,14,14.60
2006,08,26,07,15,14.70
2006,08,26,07,16,14.70
2006,08,26,07,17,14.80
2006,08,26,07,18,14.80
2006,08,26,07,19,14.90
2006,08,26,07,20,15.00
2006,08,26,07,21,15.10
2006,08,26,07,22,15.10
2006,08,26,07,23,15.20
2006,08,26,07,24,15.30
2006,08,26,07,25,15.40
2006,08,26,07,26,15.50
2006,08,26,07,27,15.60
2006,08,26,07,28,15.70
2006,08,26,07,29,15.80
2006,08,26,07,30,15.80
2006,08,26,07,31,15.90
2006,08,26,07,32,16.10
2006,08,26,07,33,16.20
2006,08,26,07,34,16.30
2006,08,26,07,35,16.40
2006,08,26,07,36,16.50
2006,08,26,07,37,16.60
2006,08,26,07,38,16.70
2006,08,26,07,39,16.70
2006,08,26,07,40,16.70
2006,08,26,07,41,16.90
2006,08,26,07,42,16.90
2006,08,26,07,43,17.00
2006,08,26,07,44,17.00
2006,08,26,07,45,17.00
2006,08,26,07,46,17.00
2006,08,26,07,47,17.10
2006,08,26,07,48,17.00
2006,08,26,07,49,17.00
2006,08,26,07,50,17.00
2006,08,26,07,51,17.10
2006,08,26,07,52,17.10
2006,08,26,07,53,17.10
2006,08,26,07,54,17.20
2006,08,26,07,55,17.30
2006,08,26,07,56,17.30
2006,08,26,07,57,17.40
2006,08,26,07,58,17.50
2006,08,26,07,59,17.60
2006,08,26,08,00,17.70
2006,08,26,08,01,17.70
2006,08,26,08,02,17.70
2006,08,26,08,03,17.70
2006,08,26,08,04,17.70
2006,08,26,08,05,17.60
2006,08,26,08,06,17.50
2006,08,26,08,07,17.50
2006,08,26,08,08,17.40
2006,08,26,08,09,17.40
2006,08,26,08,10,17.30
2006,08,26,08,11,17.30
2006,08,26,08,12,17.30
2006,08,26,08,13,17.30
2006,08,26,08,14,17.30
2006,08,26,08,15,17.30
2006,08,26,08,16,17.30
2006,08,26,08,17,17.30
2006,08,26,08,18,17.20
2006,08,26,08,19,17.20
2006,08,26,08,20,17.20
2006,08,26,08,21,17.20
2006,08,26,08,22,17.20
2006,08,26,08,23,17.20
2006,08,26,08,24,17.20
2006,08,26,08,25,17.20
2006,08,26,08,26,17.20
2006,08,26,08,27,17.20
2006,08,26,08,28,17.20
2006,08,26,08,29,17.20
2006,08,26,08,30,17.20
2006,08,26,08,31,17.20
2006,08,26,08,32,17.20
2006,08,26,08,33,17.20
2006,08,26,08,34,17.10
2006,08,26,08,35,17.10
2006,08,26,08,36,17.10
2006,08,26,08,37,17.10
2006,08,26,08,38,17.10
2006,08,26,08,39,17.30
2006,08,26,08,40,17.30
2006,08,26,08,41,17.30
2006,08,26,08,42,17.30
2006,08,26,08,43,17.20
2006,08,26,08,44,17.10
2006,08,26,08,45,17.00
2006,08,26,08,46,17.00
2006,08,26,08,47,17.10
2006,08,26,08,48,17.10
2006,08,26,08,49,17.10
2006,08,26,08,50,17.20
2006,08,26,08,51,17.30
2006,08,26,08,52,17.30
2006,08,26,08,53,17.30
2006,08,26,08,54,17.30
2006,08,26,08,55,17.30
2006,08,26,08,56,17.40
2006,08,26,08,57,17.50
2006,08,26,08,58,17.50
2006,08,26,08,59,17.60
2006,08,26,09,00,17.70
2006,08,26,09,01,17.70
2006,08,26,09,02,17.70
2006,08,26,09,03,17.80
2006,08,26,09,04,17.80
2006,08,26,09,05,17.80
2006,08,26,09,06,17.90
2006,08,26,09,07,17.90
2006,08,26,09,08,18.10
2006,08,26,09,09,18.10
2006,08,26,09,10,18.10
2006,08,26,09,11,18.10
2006,08,26,09,12,18.20
2006,08,26,09,13,18.20
2006,08,26,09,14,18.30
2006,08,26,09,15,18.40
2006,08,26,09,16,18.50
2006,08,26,09,17,18.60
2006,08,26,09,18,18.70
2006,08,26,09,19,18.80
2006,08,26,09,20,18.90
2006,08,26,09,21,18.90
2006,08,26,09,22,18.90
2006,08,26,09,23,18.80
2006,08,26,09,24,18.80
2006,08,26,09,25,18.80
2006,08,26,09,26,18.80
2006,08,26,09,27,18.80
2006,08,26,09,28,18.80
2006,08,26,09,29,18.80
2006,08,26,09,30,18.80
2006,08,26,09,31,18.80
2006,08,26,09,32,18.70
2006,08,26,09,33,18.70
2006,08,26,09,34,18.60
2006,08,26,09,35,18.60
2006,08,26,09,36,18.60
2006,08,26,09,37,18.60
2006,08,26,09,38,18.60
2006,08,26,09,39,18.50
2006,08,26,09,40,18.50
2006,08,26,09,41,18.50
2006,08,26,09,42,18.50
2006,08,26,09,43,18.60
2006,08,26,09,44,18.60
2006,08,26,09,45,18.60
2006,08,26,09,46,18.60
2006,08,26,09,47,18.50
2006,08,26,09,48,18.60
2006,08,26,09,49,18.60
2006,08,26,09,50,18.60
2006,08,26,09,51,18.60
2006,08,26,09,52,18.70
2006,08,26,09,53,18.80
2006,08,26,09,54,18.80
2006,08,26,09,55,18.70
2006,08,26,09,56,18.70
2006,08,26,09,57,18.70
2006,08,26,09,58,18.60
2006,08,26,09,59,18.60
2006,08,26,10,00,18.60
2006,08,26,10,01,18.60
2006,08,26,10,02,18.70
2006,08,26,10,03,18.70
2006,08,26,10,04,18.80
2006,08,26,10,05,18.80
2006,08,26,10,06,18.80
2006,08,26,10,07,18.70
2006,08,26,10,08,18.70
2006,08,26,10,09,18.70
2006,08,26,10,10,18.80
2006,08,26,10,11,18.90
2006,08,26,10,12,18.90
2006,08,26,10,13,18.90
2006,08,26,10,14,19.00
2006,08,26,10,15,19.10
2006,08,26,10,16,19.10
2006,08,26,10,17,19.20
2006,08,26,10,18,19.30
2006,08,26,10,19,19.40
2006,08,26,10,20,19.40
2006,08,26,10,21,19.40
2006,08,26,10,22,19.40
2006,08,26,10,23,19.40
2006,08,26,10,24,19.40
2006,08,26,10,25,19.40
2006,08,26,10,26,19.40
2006,08,26,10,27,19.30
2006,08,26,10,28,19.40
2006,08,26,10,29,19.30
2006,08,26,10,30,19.40
2006,08,26,10,31,19.40
2006,08,26,10,32,19.40
2006,08,26,10,33,19.40
2006,08,26,10,34,19.60
2006,08,26,10,35,19.70
2006,08,26,10,36,19.60
2006,08,26,10,37,19.60
2006,08,26,10,38,19.60
2006,08,26,10,39,19.60
2006,08,26,10,40,19.60
2006,08,26,10,41,19.60
2006,08,26,10,42,19.60
2006,08,26,10,43,19.60
2006,08,26,10,44,19.70
2006,08,26,10,45,19.70
2006,08,26,10,46,19.70
2006,08,26,10,47,19.70
2006,08,26,10,48,19.70
2006,08,26,10,49,19.70
2006,08,26,10,50,19.70
2006,08,26,10,51,19.70
2006,08,26,10,52,19.70
2006,08,26,10,53,19.80
2006,08,26,10,54,19.90
2006,08,26,10,55,19.90
2006,08,26,10,56,19.90
2006,08,26,10,57,19.90
2006,08,26,10,58,20.00
2006,08,26,10,59,20.10
2006,08,26,11,00,20.10
2006,08,26,11,01,20.00
2006,08,26,11,02,19.90
2006,08,26,11,03,20.10
2006,08,26,11,04,20.10
2006,08,26,11,05,20.20
2006,08,26,11,06,20.20
2006,08,26,11,07,20.20
2006,08,26,11,08,20.10
2006,08,26,11,09,19.90
2006,08,26,11,10,19.80
2006,08,26,11,11,19.80
2006,08,26,11,12,19.90
2006,08,26,11,13,19.90
2006,08,26,11,14,19.90
2006,08,26,11,15,19.90
2006,08,26,11,16,19.90
2006,08,26,11,17,19.90
2006,08,26,11,18,20.10
2006,08,26,11,19,20.20
2006,08,26,11,20,20.20
2006,08,26,11,21,20.30
2006,08,26,11,22,20.30
2006,08,26,11,23,20.30
2006,08,26,11,24,20.40
2006,08,26,11,25,20.50
2006,08,26,11,26,20.60
2006,08,26,11,27,20.60
2006,08,26,11,28,20.60
2006,08,26,11,29,20.60
2006,08,26,11,30,20.50
2006,08,26,11,31,20.40
2006,08,26,11,32,20.20
2006,08,26,11,33,20.20
2006,08,26,11,34,20.00
2006,08,26,11,35,19.90
2006,08,26,11,36,19.90
2006,08,26,11,37,20.00
2006,08,26,11,38,20.20
2006,08,26,11,39,20.40
2006,08,26,11,40,20.40
2006,08,26,11,41,20.30
2006,08,26,11,42,20.30
2006,08,26,11,43,20.20
2006,08,26,11,44,20.20
2006,08,26,11,45,20.20
2006,08,26,11,46,20.20
2006,08,26,11,47,20.20
2006,08,26,11,48,20.20
2006,08,26,11,49,20.20
2006,08,26,11,50,20.10
2006,08,26,11,51,19.90
2006,08,26,11,52,19.80
2006,08,26,11,53,19.70
2006,08,26,11,54,19.70
2006,08,26,11,55,19.70
2006,08,26,11,56,19.90
2006,08,26,11,57,20.00
2006,08,26,11,58,20.10
2006,08,26,11,59,20.20
2006,08,26,12,00,20.20
2006,08,26,12,01,20.40
2006,08,26,12,02,20.50
2006,08,26,12,03,20.50
2006,08,26,12,04,20.40
2006,08,26,12,05,20.30
2006,08,26,12,06,20.20
2006,08,26,12,07,20.20
2006,08,26,12,08,20.20
2006,08,26,12,09,20.10
2006,08,26,12,10,20.20
2006,08,26,12,11,20.20
2006,08,26,12,12,20.30
2006,08,26,12,13,20.20
2006,08,26,12,14,20.20
2006,08,26,12,15,20.20
2006,08,26,12,16,20.20
2006,08,26,12,17,20.10
2006,08,26,12,18,19.90
2006,08,26,12,19,19.80
2006,08,26,12,20,19.70
2006,08,26,12,21,19.70
2006,08,26,12,22,19.80
2006,08,26,12,23,19.80
2006,08,26,12,24,19.90
2006,08,26,12,25,19.90
2006,08,26,12,26,19.90
2006,08,26,12,27,19.90
2006,08,26,12,28,20.00
2006,08,26,12,29,20.10
2006,08,26,12,30,20.10
2006,08,26,12,31,20.20
2006,08,26,12,32,20.40
2006,08,26,12,33,20.50
2006,08,26,12,34,20.60
2006,08,26,12,35,20.70
2006,08,26,12,36,20.70
2006,08,26,12,37,20.70
2006,08,26,12,38,20.80
2006,08,26,12,39,20.80
2006,08,26,12,40,20.80
2006,08,26,12,41,20.90
2006,08,26,12,42,20.90
2006,08,26,12,43,20.90
2006,08,26,12,44,20.90
2006,08,26,12,45,21.00
2006,08,26,12,46,21.10
2006,08,26,12,47,21.20
2006,08,26,12,48,21.30
2006,08,26,12,49,21.30
2006,08,26,12,50,21.20
2006,08,26,12,51,21.00
2006,08,26,12,52,20.90
2006,08,26,12,53,20.90
2006,08,26,12,54,20.90
2006,08,26,12,55,21.00
2006,08,26,12,56,21.10
2006,08,26,12,57,21.20
2006,08,26,12,58,21.20
2006,08,26,12,59,21.20
2006,08,26,13,00,20.90
2006,08,26,13,01,20.90
2006,08,26,13,02,20.90
2006,08,26,13,03,20.80
2006,08,26,13,04,20.60
2006,08,26,13,05,20.50
2006,08,26,13,06,20.30
2006,08,26,13,07,20.40
2006,08,26,13,08,20.50
2006,08,26,13,09,20.60
2006,08,26,13,10,20.80
2006,08,26,13,11,20.80
2006,08,26,13,12,20.90
2006,08,26,13,13,21.00
2006,08,26,13,14,21.10
2006,08,26,13,15,21.30
2006,08,26,13,16,21.40
2006,08,26,13,17,21.30
2006,08,26,13,18,21.30
2006,08,26,13,19,21.30
2006,08,26,13,20,21.30
2006,08,26,13,21,21.30
2006,08,26,13,22,21.30
2006,08,26,13,23,21.30
2006,08,26,13,24,21.00
2006,08,26,13,25,21.00
2006,08,26,13,26,20.90
2006,08,26,13,27,20.80
2006,08,26,13,28,20.90
2006,08,26,13,29,20.90
2006,08,26,13,30,20.90
2006,08,26,13,31,20.80
2006,08,26,13,32,20.80
2006,08,26,13,33,20.80
2006,08,26,13,34,20.70
2006,08,26,13,35,20.70
2006,08,26,13,36,20.70
2006,08,26,13,37,20.70
2006,08,26,13,38,20.70
2006,08,26,13,39,20.80
2006,08,26,13,40,20.80
2006,08,26,13,41,21.00
2006,08,26,13,42,21.10
2006,08,26,13,43,21.10
2006,08,26,13,44,21.10
2006,08,26,13,45,21.20
2006,08,26,13,46,21.30
2006,08,26,13,47,21.30
2006,08,26,13,48,21.30
2006,08,26,13,49,21.30
2006,08,26,13,50,21.40
2006,08,26,13,51,21.40
2006,08,26,13,52,21.40
2006,08,26,13,53,21.40
2006,08,26,13,54,21.50
2006,08,26,13,55,21.60
2006,08,26,13,56,21.60
2006,08,26,13,57,21.70
2006,08,26,13,58,21.80
2006,08,26,13,59,21.80
2006,08,26,14,00,21.70
2006,08,26,14,01,21.60
2006,08,26,14,02,21.70
2006,08,26,14,03,21.90
2006,08,26,14,04,22.00
2006,08,26,14,05,22.20
2006,08,26,14,06,22.30
2006,08,26,14,07,22.30
2006,08,26,14,08,22.40
2006,08,26,14,09,22.40
2006,08,26,14,10,22.40
2006,08,26,14,11,22.40
2006,08,26,14,12,22.30
2006,08,26,14,13,22.30
2006,08,26,14,14,22.20
2006,08,26,14,15,22.00
2006,08,26,14,16,22.00
2006,08,26,14,17,21.90
2006,08,26,14,18,21.80
2006,08,26,14,19,21.80
2006,08,26,14,20,21.90
2006,08,26,14,21,21.90
2006,08,26,14,22,21.90
2006,08,26,14,23,21.80
2006,08,26,14,24,21.80
2006,08,26,14,25,21.90
2006,08,26,14,26,21.90
2006,08,26,14,27,21.90
2006,08,26,14,28,21.80
2006,08,26,14,29,21.80
2006,08,26,14,30,21.90
2006,08,26,14,31,21.90
2006,08,26,14,32,21.80
2006,08,26,14,33,21.90
2006,08,26,14,34,21.90
2006,08,26,14,35,21.90
2006,08,26,14,36,22.00
2006,08,26,14,37,22.10
2006,08,26,14,38,22.20
2006,08,26,14,39,22.20
2006,08,26,14,40,22.10
2006,08,26,14,41,22.10
2006,08,26,14,42,22.00
2006,08,26,14,43,22.00
2006,08,26,14,44,22.00
2006,08,26,14,45,22.00
2006,08,26,14,46,21.90
2006,08,26,14,47,22.00
2006,08,26,14,48,22.10
2006,08,26,14,49,22.20
2006,08,26,14,50,22.20
2006,08,26,14,51,22.30
2006,08,26,14,52,22.40
2006,08,26,14,53,22.60
2006,08,26,14,54,22.50
2006,08,26,14,55,22.50
2006,08,26,14,56,22.50
2006,08,26,14,57,22.50
2006,08,26,14,58,22.40
2006,08,26,14,59,22.40
2006,08,26,15,00,22.40
2006,08,26,15,01,22.40
2006,08,26,15,02,22.50
2006,08,26,15,03,22.50
2006,08,26,15,04,22.60
2006,08,26,15,05,22.70
2006,08,26,15,06,22.90
2006,08,26,15,07,22.80
2006,08,26,15,08,22.70
2006,08,26,15,09,22.60
2006,08,26,15,10,22.60
2006,08,26,15,11,22.70
2006,08,26,15,12,22.80
2006,08,26,15,13,22.90
2006,08,26,15,14,22.90
2006,08,26,15,15,22.90
2006,08,26,15,16,23.10
2006,08,26,15,17,23.10
2006,08,26,15,18,23.20
2006,08,26,15,19,23.20
2006,08,26,15,20,23.20
2006,08,26,15,21,23.20
2006,08,26,15,22,23.20
2006,08,26,15,23,23.30
2006,08,26,15,24,23.30
2006,08,26,15,25,23.30
2006,08,26,15,26,23.30
2006,08,26,15,27,23.30
2006,08,26,15,28,23.30
2006,08,26,15,29,23.40
2006,08,26,15,30,23.50
2006,08,26,15,31,23.60
2006,08,26,15,32,23.70
2006,08,26,15,33,23.70
2006,08,26,15,34,23.80
2006,08,26,15,35,23.80
2006,08,26,15,36,23.80
2006,08,26,15,37,23.80
2006,08,26,15,38,23.80
2006,08,26,15,39,24.00
2006,08,26,15,40,24.10
2006,08,26,15,41,24.10
2006,08,26,15,42,24.10
2006,08,26,15,43,24.10
2006,08,26,15,44,24.10
2006,08,26,15,45,24.10
2006,08,26,15,46,24.10
2006,08,26,15,47,24.20
2006,08,26,15,48,24.10
2006,08,26,15,49,24.10
2006,08,26,15,50,24.00
2006,08,26,15,51,23.90
2006,08,26,15,52,23.70
2006,08,26,15,53,23.70
2006,08,26,15,54,23.60
2006,08,26,15,55,23.60
2006,08,26,15,56,23.70
2006,08,26,15,57,23.70
2006,08,26,15,58,23.80
2006,08,26,15,59,23.90
2006,08,26,16,00,24.10
2006,08,26,16,01,24.10
2006,08,26,16,02,24.30
2006,08,26,16,03,24.40
2006,08,26,16,04,24.50
2006,08,26,16,05,24.60
2006,08,26,16,06,24.60
2006,08,26,16,07,24.80
2006,08,26,16,08,25.10
2006,08,26,16,09,25.40
2006,08,26,16,10,25.60
2006,08,26,16,11,25.80
2006,08,26,16,12,25.90
2006,08,26,16,13,26.00
2006,08,26,16,14,26.20
2006,08,26,16,15,26.30
2006,08,26,16,16,26.30
2006,08,26,16,17,26.30
2006,08,26,16,18,26.60
2006,08,26,16,19,26.60
2006,08,26,16,20,26.60
2006,08,26,16,21,26.70
2006,08,26,16,22,26.80
2006,08,26,16,23,26.90
2006,08,26,16,24,27.00
2006,08,26,16,25,27.10
2006,08,26,16,26,27.10
2006,08,26,16,27,27.10
2006,08,26,16,28,27.20
2006,08,26,16,29,27.20
2006,08,26,16,30,27.40
2006,08,26,16,31,27.60
2006,08,26,16,32,27.70
2006,08,26,16,33,27.70
2006,08,26,16,34,27.70
2006,08,26,16,35,27.60
2006,08,26,16,36,27.60
2006,08,26,16,37,27.60
2006,08,26,16,38,27.70
2006,08,26,16,39,27.80
2006,08,26,16,40,27.80
2006,08,26,16,41,27.60
2006,08,26,16,42,27.40
2006,08,26,16,43,27.30
2006,08,26,16,44,27.20
2006,08,26,16,45,27.10
2006,08,26,16,46,27.00
2006,08,26,16,47,26.80
2006,08,26,16,48,26.70
2006,08,26,16,49,26.60
2006,08,26,16,50,26.60
2006,08,26,16,51,26.60
2006,08,26,16,52,26.60
2006,08,26,16,53,26.70
2006,08,26,16,54,26.50
2006,08,26,16,55,26.40
2006,08,26,16,56,26.30
2006,08,26,16,57,26.40
2006,08,26,16,58,26.60
2006,08,26,16,59,26.60
2006,08,26,17,00,26.60
2006,08,26,17,01,26.60
2006,08,26,17,02,26.70
2006,08,26,17,03,26.80
2006,08,26,17,04,27.00
2006,08,26,17,05,27.20
2006,08,26,17,06,27.30
2006,08,26,17,07,27.40
2006,08,26,17,08,27.40
2006,08,26,17,09,27.40
2006,08,26,17,10,27.40
2006,08,26,17,11,27.40
2006,08,26,17,12,27.50
2006,08,26,17,13,27.70
2006,08,26,17,14,27.70
2006,08,26,17,15,27.70
2006,08,26,17,16,27.60
2006,08,26,17,17,27.40
2006,08,26,17,18,27.30
2006,08,26,17,19,27.30